Regional Weather Roundup
Issued by NWS

Home | Current Version | Previous Version | Text Only | Print | Product List | Glossary Off
Versions: 1 2 3 4 5 6 7 8 9 10 11 12 13 14 15 16 17 18 19 20 21 22 23 24 25 26 27 28 29 30 31 32 33 34 35 36 37 38 39 40 41 42 43 44 45 46 47 48 49 50

000
ASUS43 KMPX 260410
RWRMN
WEATHER ROUNDUP FOR MINNESOTA
NATIONAL WEATHER SERVICE TWIN CITIES/CHANHASSEN MN
1100 PM CDT MON MAY 25 2015


NOTE: "FAIR" INDICATES FEW OR NO CLOUDS BELOW 12,000 FEET WITH NO
SIGNIFICANT WEATHER AND/OR OBSTRUCTIONS TO VISIBILITY. N/A MEANS
CURRENT SKY AND/OR WEATHER CONDITIONS ARE NOT AVAILABLE.

MNZ060>063-068>070-260500-
   Twin Cities Metro

CITY           SKY/WX    TMP DP  RH WIND       PRES   REMARKS
TWIN CITIES    MOCLDY    66  58  75 S7        29.78R
ST PAUL        CLEAR     63  58  83 SW3       29.78R
CRYSTAL        CLEAR     63  57  81 S5        29.76R
BLAINE         FAIR      63  61  94 SW5       29.77R
LAKEVILLE      CLEAR     61  61 100 CALM      29.78S
EDEN PRAIRIE   CLEAR     62  57  83 SW5       29.77R
SOUTH ST PAUL  CLEAR     62  59  90 CALM      29.78R
LAKE ELMO      FAIR      61  59  94 SW3       29.79R
$$
MNZ001>005-007-008-013>017-022>024-027-028-260500-
   Northwest Minnesota

CITY           SKY/WX    TMP DP  RH WIND       PRES   REMARKS
BEMIDJI        MOCLDY    52  51  97 CALM      29.82R
HALLOCK        CLEAR     64  52  63 S12       29.78S
ROSEAU         PTCLDY    59  52  77 S9        29.79S
WARROAD        MOCLDY    61  54  77 S8        29.80S
THIEF RVR FALL PTCLDY    57  52  82 S6        29.83R
CROOKSTON      CLEAR     57  52  82 S7        29.83R
FOSSTON        PTCLDY    50  46  87 CALM      29.84R
DETROIT LAKES  CLEAR     55  52  88 N3        29.83S
MOORHEAD       CLEAR     54  52  94 N3        29.84S
PARK RAPIDS    CLOUDY    56  51  84 NE5       29.81R
MAHNOMEN       FAIR      55  51  87 CALM      29.83R
$$
MNZ006-009>011-018-025>026-260500-
   North Central Minnesota

CITY           SKY/WX    TMP DP  RH WIND       PRES   REMARKS
BAUDETTE       MOCLDY    56  51  84 S5        29.80F
FLAG ISLAND    MOCLDY    57  55  94 S13       29.77S
INTL FALLS     CLOUDY    52  51  97 CALM      29.81S
WASKISH        CLOUDY    54  52  94 CALM      29.82S
BIG FORK       CLOUDY    55  52  88 CALM      29.82R
LONGVILLE      MOCLDY    54  54 100 NE3       29.81R
GRAND RAPIDS   CLOUDY    54  48  82 N6        29.81R
CRANE LAKE     CLOUDY    52  52 100 CALM      29.82F FOG
ORR            CLOUDY    54  52  94 CALM      29.79R
COOK           CLOUDY    54  54 100 CALM      29.81R
WALKER         CLOUDY    55  51  88 NE3       29.80F
$$
MNZ012-019>021-037-260500-
   Northeast Minnesota

CITY           SKY/WX    TMP DP  RH WIND       PRES   REMARKS
DULUTH         DRIZZLE   52  49  89 NE5       29.78R
ELY            RAIN      54  50  87 NE7       29.80S
HIBBING        LGT RAIN  54  50  86 NE5       29.80R
EVELETH        DRIZZLE   54  52  94 NE7       29.80S
DULUTH HARBOR  DRIZZLE   45  45 100 CALM      29.79S
TWO HARBORS    CLOUDY    55  50  82 CALM      29.77S
GRAND MARAIS     N/A     42  41  96 SW5       29.77R
G MARAIS ARPRT DRIZZLE   52  48  87 N9        29.79R
$$
MNZ029>031-032-039>041-046>048-054>057-064-260500-
   West Central Minnesota

CITY           SKY/WX    TMP DP  RH WIND       PRES   REMARKS
FERGUS FALLS   CLEAR     55  50  82 N5        29.85R
WHEATON        CLEAR     52  48  87 CALM      29.85R
MORRIS         MOCLDY    57  52  82 N7        29.81R
ALEXANDRIA     CLOUDY    56  51  84 NE13      29.82R
ELBOW LAKE     FAIR      56  51  81 NE9       29.82R
WADENA         CLOUDY    54  52  94 E7        29.82R
GLENWOOD       CLOUDY    55  54  94 NE7       29.82R
APPLETON       CLOUDY    59  52  77 N7        29.80R
BENSON         CLOUDY    57  52  82 NE7       29.80R
ORTONVILLE     CLEAR     55  50  82 N12       29.82S
MADISON        CLOUDY    59  52  77 N8        29.82S
WILLMAR        CLOUDY    59  55  88 W5        29.80R
$$
MNZ033>034-036-042>043-049>051-058-059-260500-
   Central Minnesota

CITY           SKY/WX    TMP DP  RH WIND       PRES   REMARKS
ST CLOUD       CLEAR     58  56  93 SW6       29.76R
SAUK CENTRE    CLOUDY    56  53  90 N9        29.80R
PAYNESVILLE    PTCLDY    53  52  99 SW5       29.79R
AITKIN         CLOUDY    55  50  82 N7        29.77R
PINE RIVER     CLOUDY    55  54  94 NE9       29.84R
BRAINERD       CLOUDY    55  53  93 N12       29.79R FOG
STAPLES        CLOUDY    55  52  88 NE8       29.81R
LONG PRAIRIE   CLOUDY    54  52  94 N10       29.80S
LITTLE FALLS   CLOUDY    55  52  88 N5        29.78R
LITCHFIELD     CLEAR     61  59  94 SW6       29.78R
BUFFALO        CLEAR     60  56  85 S3        29.78R
MAPLE LAKE     CLEAR     60  57  89 SW5       29.78R
$$
MNZ037-044-045-052-053-260500-
   East Central Minnesota

CITY           SKY/WX    TMP DP  RH WIND       PRES   REMARKS
PRINCETON      CLEAR     61  55  82 SW6       29.77R
MORA           CLOUDY    59  55  88 NE3       29.77R
CAMBRIDGE      CLEAR     63  54  72 S3        29.75R
RUSH CITY      PTCLDY    60  56  85 S3        29.76R
MOOSE LAKE     CLOUDY    48  48 100 NE3       29.76S
HINCKLEY       CLOUDY    59  59 100 N3        29.76R
CLOQUET        CLOUDY    50  48  93 N5        29.77F FOG
MCGREGOR       CLOUDY    54  52  94 NE7       29.78R
$$
MNZ071>073-080-081-089-090-097-098-260500-
   Southwest Minnesota

CITY           SKY/WX    TMP DP  RH WIND       PRES   REMARKS
MONTEVIDEO     CLOUDY    57  55  94 N6        29.81S
GRANITE FALLS  CLEAR     56  53  89 NW6       29.81S
CANBY          MOCLDY    56  53  86 NW5       29.83S
MARSHALL       MOCLDY    57  52  82 NW12      29.80S
REDWOOD FALLS  PTCLDY    58  55  90 W9        29.78R
OLIVIA         CLEAR     54  52  94 W7        29.78S
PIPESTONE      PTCLDY    57  54  88 NE7       29.81R
WINDOM         CLOUDY    61  55  82 NW7       29.81R
WORTHINGTON    MOCLDY    61  55  82 NE3       29.82R
JACKSON        CLOUDY    63  59  88 N3        29.81R
TRACY          PTCLDY    57  55  94 NW6       29.82R
SLAYTON        PTCLDY    56  55  95 N8        29.83R
$$
MNZ065>067-074>077-082>085-091>093-260500-
   South Central Minnesota

CITY           SKY/WX    TMP DP  RH WIND       PRES   REMARKS
MANKATO        PTCLDY    64  57  77 CALM      29.79S
NEW ULM        MOCLDY    61  57  88 W3        29.79R
ST JAMES       MOCLDY    64  61  88 CALM      29.80S
FAIRMONT       CLOUDY    63  55  77 N5        29.80R
GLENCOE        PTCLDY    62  59  90 SW3       29.78R
FARIBAULT      PTCLDY    61  59  94 CALM      29.79S
OWATONNA       PTCLDY    61  57  88 CALM      29.80S
WASECA         PTCLDY    59  57  94 CALM      29.81S
ALBERT LEA     MOCLDY    66  57  72 CALM      29.80S
$$
MNZ078>079-086>088-094>096-260500-
   Southeast Minnesota

CITY           SKY/WX    TMP DP  RH WIND       PRES   REMARKS
ROCHESTER      MOCLDY    63  58  83 S9        29.80S
RED WING       CLEAR     61  57  88 CALM      29.77S
STANTON        CLEAR     62  59  91 S5        29.78R
DODGE CENTER   PTCLDY    63  59  88 CALM      29.80F
WINONA         MOCLDY    70  61  73 CALM      29.79S
AUSTIN         CLOUDY    64  57  77 S5        29.80S
PRESTON        CLOUDY    66  60  80 S7        29.82S
$$
ABBREVIATIONS USED IN REMARKS
   TC - TEMPERATURES IN CELSIUS
  WCI - WIND CHILL INDEX
   HX - HEAT INDEX
  VSB - VISIBILITY
$$



USA.gov is the U.S. government's official web portal to all federal, state and local government web resources and services.